Regional Weather Roundup
Issued by NWS

Home | Current Version | Previous Version | Graphics & Text | Print | Product List | Glossary On
Versions: 1 2 3 4 5 6 7 8 9 10 11 12 13 14 15 16 17 18 19 20 21 22 23 24 25 26 27 28 29 30 31 32 33 34 35 36 37 38 39 40 41 42 43 44 45 46 47 48 49 50
000
ASUS43 KLSX 240207
RWRMO

WEATHER SUMMARY FOR MISSOURI
NATIONAL WEATHER SERVICE SPRINGFIELD MO
900 PM CDT SAT JUL 23 2016

NOTE: "FAIR" INDICATES FEW OR NO CLOUDS BELOW 12,000 FEET WITH NO
       SIGNIFICANT WEATHER AND/OR OBSTRUCTIONS TO VISIBILITY.
       CURRENT SKY AND/OR WEATHER CONDITIONS ARE NOT AVAILABLE FOR
       CHILLICOTHE AND FARMINGTON.

MOZ001>031-035>038-043-044-053-054-240300-
...NORTHERN AND WESTERN MISSOURI...

CITY           SKY/WX    TMP DP  RH WIND       PRES   REMARKS
KANSAS CTY INT CLOUDY    84  75  74 S8        29.85S HX  92
KANSAS C DTWN  CLOUDY    90  70  51 S6        29.84R HX  95
LEE`S SUMMIT   CLOUDY    90  73  57 S8        29.88R HX  98
ST JOSEPH      CLOUDY    85  74  69 S8        29.82R HX  92
CHILLICOTHE      N/A     86  79  79 S3        29.86S HX  99
KIRKSVILLE     CLOUDY    82  77  84 S5        29.89R HX  90

$$
MOZ066>068-077>081-088>096-101>105-240300-
...SOUTHWEST MISSOURI...

CITY           SKY/WX    TMP DP  RH WIND       PRES   REMARKS
SPRINGFIELD    CLEAR     86  72  62 S7        29.94R HX  92
JOPLIN         CLEAR     89  74  60 SE8       29.92R HX  98
BRANSON        MOCLDY    86  75  70 S5        29.96R HX  95

$$
MOZ032>034-039>042-045>050-055>058-069>072-240300-
...CENTRAL MISSOURI...

CITY           SKY/WX    TMP DP  RH WIND       PRES   REMARKS
COLUMBIA       CLEAR     86  79  79 S6        29.91R HX  99
JEFFERSON CITY CLEAR     88  76  67 CALM      29.89R HX  99
ROLLA          CLEAR     85  77  77 SE6       29.93R HX  95
SEDALIA        CLEAR     84  77  79 S6        29.91R HX  94
WHITEMAN AFB   CLEAR     83  77  80 S6        29.88R HX  92
OSAGE BEACH    CLEAR     84  78  82 CALM      29.91S HX  95

$$
MOZ051-052-059>065-240300-
...EAST CENTRAL MISSOURI...

CITY           SKY/WX    TMP DP  RH WIND       PRES   REMARKS
ST LOUIS INTL  PTCLDY    90  74  59 S10       29.93R HX  99
SPIRIT OF STL  PTCLDY    87  76  69 SE5       29.91R HX  97
ST CHARLES     CLEAR     84  78  82 SE6       29.90R HX  95

$$
MOZ072>076-082>087-097>100-106>115-240300-
...SOUTH CENTRAL AND SOUTHEAST MISSOURI...

CITY           SKY/WX    TMP DP  RH WIND       PRES   REMARKS
CAPE GIRARDEAU CLEAR     81  76  84 SE5       29.93R
FARMINGTON     CLEAR     83  75  77 CALM      29.96R HX  90
POPLAR BLUFF   PTCLDY    83  76  79 CALM      29.94R HX  91
WEST PLAINS    CLOUDY    83  70  64 CALM      29.98S

$$



USA.gov is the U.S. government's official web portal to all federal, state and local government web resources and services.